Location: Cheyres
(46.8153°N, 6.7877°E)
Time: 04:31:30
(UTC+00:00)

Cosmos 1908 Rocket - Pass Details

Date: 11 May 2021
Orbit: 606 x 632 km, 82.5° (Epoch: 18 June)

Event Time Altitude Azimuth Distance (km) Brightness Sun altitude
Rises 23:13:16 0° 347° (NNW) 2,939 8.4 -25.0°
Reaches altitude 10° 23:15:33 10° 343° (NNW) 2,026 7.2 -25.0°
Enters shadow 23:19:43 56° 279° (W) 757 3.9 -25.0°
